TimeEST,TemperatureF,Dew PointF,Humidity,Sea Level PressureIn,VisibilityMPH,Wind Direction,Wind SpeedMPH,Gust SpeedMPH,PrecipitationIn,Events,Conditions,WindDirDegrees,DateUTC
12:53 AM,73.0,71.1,93,30.06,8.0,SSW,4.6,-,N/A,,Scattered Clouds,210,2012-12-13 05:53:00
1:53 AM,73.0,71.1,93,30.05,7.0,Calm,Calm,-,N/A,,Overcast,0,2012-12-13 06:53:00
2:40 AM,73.4,71.6,94,30.03,7.0,SSW,3.5,-,N/A,,Overcast,200,2012-12-13 07:40:00
2:48 AM,71.6,71.6,100,30.03,7.0,SSW,3.5,-,N/A,,Overcast,200,2012-12-13 07:48:00
2:53 AM,73.0,71.1,93,30.04,7.0,Calm,Calm,-,N/A,,Overcast,0,2012-12-13 07:53:00
3:34 AM,73.4,71.6,94,30.03,2.0,NW,9.2,-,0.07,Rain,Rain,320,2012-12-13 08:34:00
3:43 AM,71.6,71.6,100,30.03,6.0,NNW,9.2,-,0.07,Rain,Light Rain,330,2012-12-13 08:43:00
3:53 AM,72.0,70.0,93,30.04,9.0,NW,10.4,-,0.08,,Overcast,320,2012-12-13 08:53:00
4:02 AM,71.6,69.8,94,30.03,10.0,NW,8.1,-,N/A,,Overcast,310,2012-12-13 09:02:00
4:53 AM,70.0,68.0,93,30.05,10.0,NNW,11.5,-,N/A,,Overcast,330,2012-12-13 09:53:00
5:53 AM,69.1,66.0,90,30.07,10.0,NNW,8.1,-,N/A,,Overcast,340,2012-12-13 10:53:00
6:53 AM,68.0,64.9,90,30.09,10.0,North,11.5,-,N/A,,Overcast,350,2012-12-13 11:53:00
7:53 AM,68.0,64.9,90,30.11,10.0,NNW,9.2,-,N/A,,Overcast,340,2012-12-13 12:53:00
8:35 AM,69.8,64.4,83,30.11,10.0,North,10.4,-,N/A,,Overcast,360,2012-12-13 13:35:00
8:53 AM,69.1,64.0,84,30.13,10.0,North,10.4,-,N/A,,Overcast,350,2012-12-13 13:53:00
9:53 AM,68.0,63.0,84,30.15,10.0,North,9.2,-,N/A,,Overcast,360,2012-12-13 14:53:00
10:53 AM,68.0,62.1,81,30.15,10.0,North,11.5,-,N/A,,Overcast,360,2012-12-13 15:53:00
11:46 AM,69.8,60.8,73,30.14,10.0,North,11.5,-,N/A,,Overcast,10,2012-12-13 16:46:00
11:53 AM,69.1,61.0,75,30.14,10.0,North,10.4,18.4,N/A,,Mostly Cloudy,10,2012-12-13 16:53:00
12:53 PM,71.1,60.1,68,30.12,10.0,North,9.2,18.4,N/A,,Mostly Cloudy,10,2012-12-13 17:53:00
1:53 PM,71.1,60.1,68,30.10,10.0,NNE,13.8,-,N/A,,Overcast,30,2012-12-13 18:53:00
2:53 PM,71.1,59.0,66,30.10,10.0,NNE,9.2,-,N/A,,Mostly Cloudy,30,2012-12-13 19:53:00
3:14 PM,71.6,59.0,64,30.08,10.0,NE,8.1,-,N/A,,Scattered Clouds,50,2012-12-13 20:14:00
3:29 PM,71.6,60.8,69,30.09,10.0,North,8.1,-,N/A,,Mostly Cloudy,10,2012-12-13 20:29:00
3:53 PM,72.0,60.1,66,30.09,10.0,NE,9.2,-,N/A,,Scattered Clouds,50,2012-12-13 20:53:00
4:19 PM,71.6,60.8,69,30.08,10.0,NNE,13.8,-,N/A,,Mostly Cloudy,30,2012-12-13 21:19:00
4:53 PM,70.0,61.0,73,30.10,10.0,NE,11.5,-,N/A,,Overcast,40,2012-12-13 21:53:00
5:10 PM,69.8,60.8,73,30.09,10.0,NE,9.2,-,N/A,,Overcast,50,2012-12-13 22:10:00
8:01 PM,64.4,57.2,77,30.13,10.0,ENE,10.4,-,N/A,,Mostly Cloudy,60,2012-12-14 01:01:00
8:40 PM,62.6,57.2,82,30.14,10.0,NE,15.0,-,N/A,,Overcast,50,2012-12-14 01:40:00
8:53 PM,63.0,57.0,81,30.15,10.0,NE,13.8,-,N/A,,Overcast,40,2012-12-14 01:53:00
9:53 PM,62.1,57.0,84,30.17,10.0,NE,12.7,-,N/A,,Overcast,40,2012-12-14 02:53:00
10:53 PM,63.0,57.0,81,30.15,10.0,NE,10.4,-,N/A,,Overcast,50,2012-12-14 03:53:00
11:53 PM,62.1,55.9,80,30.14,10.0,NE,12.7,-,N/A,,Overcast,50,2012-12-14 04:53:00